Time,TemperatureF,DewpointF,PressureIn,WindDirection,WindDirectionDegrees,WindSpeedMPH,WindSpeedGustMPH,Humidity,HourlyPrecipIn,Conditions,Clouds,dailyrainin,SolarRadiationWatts/m^2,SoftwareType,DateUTC
2013-04-04 08:30:00,35.0,34.0,-100.00,SSE,152,7.0,16.0,96,-99.99,,,-99.99,13.000000,,2013-04-04 15:30:00,
2013-04-04 09:23:00,35.0,34.0,-100.00,SSE,152,7.0,16.0,96,-99.99,,,-99.99,13.000000,,2013-04-04 16:23:00,
2013-04-04 09:30:00,34.0,33.0,-100.00,SE,142,12.0,20.0,97,-99.99,,,-99.99,31.000000,,2013-04-04 16:30:00,
2013-04-04 10:22:00,34.0,33.0,-100.00,SE,142,12.0,20.0,97,-99.99,,,-99.99,31.000000,,2013-04-04 17:22:00,
2013-04-04 10:30:00,33.0,32.0,-100.00,SE,131,12.0,28.0,97,-99.99,,,-99.99,47.000000,,2013-04-04 17:30:00,
2013-04-04 11:22:00,33.0,32.0,-100.00,SE,131,12.0,28.0,97,-99.99,,,-99.99,47.000000,,2013-04-04 18:22:00,
2013-04-04 11:30:00,34.0,33.0,-100.00,SE,137,10.0,18.0,97,-99.99,,,-99.99,80.000000,,2013-04-04 18:30:00,
2013-04-04 12:22:00,34.0,33.0,-100.00,SE,137,10.0,18.0,97,-99.99,,,-99.99,80.000000,,2013-04-04 19:22:00,
2013-04-04 12:30:00,36.0,35.0,-100.00,SE,142,13.0,20.0,97,-99.99,,,-99.99,188.000000,,2013-04-04 19:30:00,
2013-04-04 13:22:00,36.0,35.0,-100.00,SE,142,13.0,20.0,97,-99.99,,,-99.99,188.000000,,2013-04-04 20:22:00,
2013-04-04 13:30:00,37.0,36.0,-100.00,SSE,150,11.0,25.0,96,-99.99,,,-99.99,354.000000,,2013-04-04 20:30:00,
2013-04-04 14:22:00,37.0,36.0,-100.00,SSE,150,11.0,25.0,96,-99.99,,,-99.99,354.000000,,2013-04-04 21:22:00,
2013-04-04 14:30:00,36.0,35.0,-100.00,SE,141,10.0,22.0,96,-99.99,,,-99.99,74.000000,,2013-04-04 21:30:00,
2013-04-04 15:22:00,36.0,35.0,-100.00,SE,141,10.0,22.0,96,-99.99,,,-99.99,74.000000,,2013-04-04 22:22:00,
2013-04-04 15:30:00,36.0,35.0,-100.00,SSE,166,6.0,13.0,97,-99.99,,,-99.99,93.000000,,2013-04-04 22:30:00,
2013-04-04 16:30:00,36.0,35.0,-100.00,South,183,5.0,11.0,97,-99.99,,,-99.99,94.000000,,2013-04-04 23:30:00,
2013-04-04 17:22:00,36.0,35.0,-100.00,South,183,5.0,11.0,97,-99.99,,,-99.99,94.000000,,2013-04-05 00:22:00,
2013-04-04 17:30:00,36.0,35.0,-100.00,South,188,4.0,11.0,97,-99.99,,,-99.99,34.000000,,2013-04-05 00:30:00,
2013-04-04 19:30:00,32.0,32.0,-100.00,SSE,161,5.0,12.0,97,-99.99,,,-99.99,1.000000,,2013-04-05 02:30:00,
2013-04-04 20:22:00,32.0,32.0,-100.00,SSE,161,5.0,12.0,97,-99.99,,,-99.99,1.000000,,2013-04-05 03:22:00,
2013-04-04 20:30:00,33.0,33.0,-100.00,SW,222,5.0,10.0,97,-99.99,,,-99.99,0.000000,,2013-04-05 03:30:00,
2013-04-04 21:22:00,33.0,33.0,-100.00,SW,222,5.0,10.0,97,-99.99,,,-99.99,0.000000,,2013-04-05 04:22:00,
2013-04-04 21:30:00,33.0,33.0,-100.00,SW,215,3.0,10.0,97,-99.99,,,-99.99,0.000000,,2013-04-05 04:30:00,
2013-04-04 22:22:00,33.0,33.0,-100.00,SW,215,3.0,10.0,97,-99.99,,,-99.99,0.000000,,2013-04-05 05:22:00,
2013-04-04 23:30:00,32.0,32.0,-100.00,SSW,209,4.0,8.0,97,-99.99,,,-99.99,0.000000,,2013-04-05 06:30:00,